GW1616 Weather Reports


time (UTC)temp
F
wind
direction
speed
knots
gust
knots
rain 1hr
in
rain 24hr
in
rain mn
in
humidity
%
barometer
mb
20260503072046 44 0 0.0 0.9 0.00 0.00 0.00 85 1019.5
20260503071552 44 0 0.0 0.0 0.00 0.00 0.00 85 1019.5
20260503071041 45 0 0.0 0.9 0.00 0.00 0.00 84 1019.4
20260503070541 45 0 0.0 0.9 0.00 0.00 0.00 84 1019.5
20260503055041 48 0 0.0 0.9 0.00 0.00 0.00 78 1019.0
20260503054553 48 0 0.0 0.0 0.00 0.00 0.00 79 1019.0
20260503054041 48 0 0.0 0.0 0.00 0.00 0.00 78 1019.0
20260503053541 49 0 0.0 0.0 0.00 0.00 0.00 77 1018.9
20260503053058 49 0 0.0 0.0 0.00 0.00 0.00 78 1019.1
20260503052542 49 0 0.0 0.9 0.00 0.00 0.00 79 1019.0
20260503052043 49 0 0.0 0.9 0.00 0.00 0.00 78 1018.9
20260503051552 50 0 0.0 0.9 0.00 0.00 0.00 78 1018.9
20260503051042 50 0 0.0 0.9 0.00 0.00 0.00 76 1018.9
20260503050542 50 0 0.0 0.9 0.00 0.00 0.00 75 1018.8
20260503050100 51 0 0.0 0.9 0.00 0.00 0.00 76 1018.9
20260503045542 51 340 0.0 0.9 0.00 0.00 0.00 76 1018.8
20260503045041 51 0 0.0 0.9 0.00 0.00 0.00 75 1018.8
20260503044555 52 346 0.0 0.9 0.00 0.00 0.00 75 1018.8
20260503044042 52 340 0.0 0.9 0.00 0.00 0.00 74 1018.8
20260503043542 52 0 0.0 2.6 0.00 0.00 0.00 76 1018.8
20260503043053 53 53 0.0 2.6 0.00 0.00 0.00 74 1018.7
20260503042542 52 287 0.9 2.6 0.00 0.00 0.00 73 1018.8
20260503042042 53 0 0.0 0.0 0.00 0.00 0.00 75 1018.6
20260503041557 53 0 0.0 0.0 0.00 0.00 0.00 74 1018.6
20260503041042 53 0 0.0 0.9 0.00 0.00 0.00 73 1018.6
20260503040542 53 0 0.0 0.9 0.00 0.00 0.00 70 1018.5
20260503040100 54 0 0.0 0.9 0.00 0.00 0.00 73 1018.6
20260503035542 54 0 0.0 0.9 0.00 0.00 0.00 72 1018.6
20260503035042 54 0 0.0 0.9 0.00 0.00 0.00 70 1018.5
20260503034610 55 349 0.0 0.9 0.00 0.00 0.00 69 1018.4
20260503034044 55 349 0.0 0.9 0.00 0.00 0.00 69 1018.4
20260503033545 55 0 0.0 0.9 0.00 0.00 0.00 68 1018.3
20260503033058 56 0 0.0 0.9 0.00 0.00 0.00 67 1018.2
20260503032542 56 0 0.0 0.9 0.00 0.00 0.00 66 1018.2
20260503032044 57 0 0.0 0.9 0.00 0.00 0.00 66 1018.2
20260503031600 57 345 0.0 0.9 0.00 0.00 0.00 65 1018.1
20260503031042 57 345 0.0 0.9 0.00 0.00 0.00 65 1018.0
20260503030542 58 345 0.0 0.9 0.00 0.00 0.00 66 1017.9
20260503030053 58 0 0.0 0.9 0.00 0.00 0.00 65 1017.9
20260503025541 59 0 0.0 0.9 0.00 0.00 0.00 63 1017.9
20260503025042 60 345 0.0 0.9 0.00 0.00 0.00 61 1017.9
20260503024556 60 0 0.0 0.9 0.00 0.00 0.00 61 1017.9
20260503024043 61 0 0.0 0.9 0.00 0.00 0.00 60 1017.9
20260503023544 62 0 0.0 0.9 0.00 0.00 0.00 57 1017.9
20260503023049 62 345 0.0 0.9 0.00 0.00 0.00 55 1017.9
20260503022542 62 349 0.0 0.9 0.00 0.00 0.00 54 1017.8
20260503022042 62 0 0.0 0.9 0.00 0.00 0.00 54 1017.8
20260503021546 63 0 0.0 0.9 0.00 0.00 0.00 53 1017.7
20260503021042 63 279 0.0 0.9 0.00 0.00 0.00 52 1017.7
20260503020542 64 0 0.0 0.9 0.00 0.00 0.00 51 1017.7
20260503020056 64 0 0.0 0.9 0.00 0.00 0.00 48 1017.6
20260503015541 64 279 0.0 0.9 0.00 0.00 0.00 49 1017.5
20260503015043 64 278 0.0 0.9 0.00 0.00 0.00 47 1017.6
20260503014608 65 278 0.0 0.9 0.00 0.00 0.00 46 1017.7
20260503014042 66 0 0.0 0.9 0.00 0.00 0.00 45 1017.7
20260503013542 66 0 0.0 0.9 0.00 0.00 0.00 42 1017.7
20260503013055 66 0 0.0 0.0 0.00 0.00 0.00 43 1017.7
20260503012542 67 0 0.0 0.0 0.00 0.00 0.00 42 1017.7
20260503012041 67 0 0.0 0.9 0.00 0.00 0.00 41 1017.8
20260503011550 67 0 0.0 0.9 0.00 0.00 0.00 42 1017.8
20260503011042 67 0 0.0 0.9 0.00 0.00 0.00 41 1017.9
20260503010542 67 278 0.0 0.9 0.00 0.00 0.00 42 1017.9
20260503010052 68 278 0.9 1.7 0.00 0.00 0.00 41 1018.0
20260503005545 69 278 0.9 2.6 0.00 0.00 0.00 38 1018.0
20260503005042 69 271 0.0 2.6 0.00 0.00 0.00 38 1018.1
20260503004548 70 285 0.9 2.6 0.00 0.00 0.00 38 1018.1
20260503004046 70 311 0.0 2.6 0.00 0.00 0.00 38 1018.2
20260503003543 70 276 0.9 1.7 0.00 0.00 0.00 35 1018.2
20260503003056 71 311 0.0 0.9 0.00 0.00 0.00 37 1018.3
20260503002542 71 0 0.0 0.9 0.00 0.00 0.00 33 1018.4
20260503002042 72 271 0.0 1.7 0.00 0.00 0.00 33 1018.3
20260503001614 72 274 0.0 1.7 0.00 0.00 0.00 31 1018.3
20260503001044 73 0 0.0 1.7 0.00 0.00 0.00 29 1018.3
20260503000544 73 146 0.0 4.3 0.00 0.00 0.00 30 1018.3
20260503000110 74 264 0.0 5.2 0.00 0.00 0.00 32 1018.3
20260502235543 75 185 0.9 5.2 0.00 0.00 0.00 28 1018.2
20260502235042 76 162 1.7 4.3 0.00 0.00 0.00 27 1018.3
20260502234555 76 291 0.9 4.3 0.00 0.00 0.00 32 1018.3
20260502234043 76 313 0.9 5.2 0.00 0.00 0.00 28 1018.4
20260502233542 76 193 0.9 5.2 0.00 0.00 0.00 27 1018.4
20260502233052 76 67 0.9 3.5 0.00 0.00 0.00 31 1018.4
20260502232544 76 195 0.9 3.5 0.00 0.00 0.00 27 1018.4
20260502232042 75 207 1.7 3.5 0.00 0.00 0.00 28 1018.6
20260502231553 75 39 0.9 3.5 0.00 0.00 0.00 34 1018.6
20260502231042 74 24 0.0 2.6 0.00 0.00 0.00 31 1018.6
20260502230543 74 0 0.0 2.6 0.00 0.00 0.00 35 1018.6
20260502230047 75 223 0.0 2.6 0.00 0.00 0.00 30 1018.6
20260502225542 76 288 0.0 2.6 0.00 0.00 0.00 33 1018.6
20260502225042 77 242 0.0 2.6 0.00 0.00 0.00 31 1018.6
20260502224548 77 264 0.9 2.6 0.00 0.00 0.00 34 1018.7
20260502224042 77 150 0.0 2.6 0.00 0.00 0.00 26 1018.8
20260502223542 76 283 0.9 2.6 0.00 0.00 0.00 33 1018.9
20260502223048 76 282 0.9 2.6 0.00 0.00 0.00 27 1018.9
20260502222543 75 354 0.9 3.5 0.00 0.00 0.00 27 1019.1
20260502222044 76 288 0.9 4.3 0.00 0.00 0.00 35 1019.1
20260502221549 76 261 0.9 4.3 0.00 0.00 0.00 29 1019.1
20260502221042 77 86 0.9 4.3 0.00 0.00 0.00 26 1019.1
20260502220545 77 131 2.6 4.3 0.00 0.00 0.00 29 1019.2
20260502220055 76 143 0.9 5.2 0.00 0.00 0.00 28 1019.2
20260502215543 76 20 1.7 5.2 0.00 0.00 0.00 26 1019.3
20260502215044 76 80 1.7 6.1 0.00 0.00 0.00 27 1019.3
20260502214558 76 124 1.7 7.0 0.00 0.00 0.00 25 1019.4
20260502214042 76 144 2.6 7.0 0.00 0.00 0.00 26 1019.3
20260502213546 76 145 1.7 6.1 0.00 0.00 0.00 24 1019.4
20260502213049 76 79 1.7 6.1 0.00 0.00 0.00 28 1019.4
20260502212542 76 113 0.9 6.1 0.00 0.00 0.00 25 1019.6
20260502212042 76 152 3.5 6.1 0.00 0.00 0.00 24 1019.7
20260502211549 76 153 2.6 6.1 0.00 0.00 0.00 23 1019.8
20260502211042 76 33 1.7 6.1 0.00 0.00 0.00 25 1019.9
20260502210541 77 0 0.9 5.2 0.00 0.00 0.00 24 1019.9
20260502210055 76 266 1.7 5.2 0.00 0.00 0.00 27 1020.0
20260502205542 76 321 0.9 5.2 0.00 0.00 0.00 26 1020.0
20260502205044 76 143 1.7 5.2 0.00 0.00 0.00 26 1020.1
20260502204549 75 104 1.7 5.2 0.00 0.00 0.00 26 1020.1
20260502204043 75 137 2.6 6.1 0.00 0.00 0.00 28 1020.2
20260502203542 75 63 1.7 6.1 0.00 0.00 0.00 24 1020.3
20260502203049 74 243 2.6 5.2 0.00 0.00 0.00 27 1020.2
20260502202542 74 88 2.6 5.2 0.00 0.00 0.00 27 1020.3
20260502202042 74 44 0.9 5.2 0.00 0.00 0.00 31 1020.3
20260502201609 74 188 1.7 5.2 0.00 0.00 0.00 32 1020.5
20260502201045 74 74 0.9 5.2 0.00 0.00 0.00 29 1020.5
20260502200542 74 150 1.7 5.2 0.00 0.00 0.00 33 1020.6
20260502200055 73 0 2.6 5.2 0.00 0.00 0.00 32 1020.7
20260502195541 73 33 1.7 4.3 0.00 0.00 0.00 29 1020.8
20260502195042 73 82 0.9 4.3 0.00 0.00 0.00 34 1020.8
20260502194555 73 106 2.6 4.3 0.00 0.00 0.00 33 1020.9
20260502194042 72 139 0.9 4.3 0.00 0.00 0.00 38 1021.0
20260502193543 71 98 2.6 4.3 0.00 0.00 0.00 41 1021.0
20260502193053 71 136 1.7 4.3 0.00 0.00 0.00 42 1021.1
20260502192542 71 106 0.9 3.5 0.00 0.00 0.00 38 1021.1
20260502192041 70 130 1.7 4.3 0.00 0.00 0.00 40 1021.3
20260502191554 70 110 1.7 4.3 0.00 0.00 0.00 43 1021.3
20260502191041 70 299 1.7 4.3 0.00 0.00 0.00 41 1021.3
20260502190542 70 65 0.9 4.3 0.00 0.00 0.00 41 1021.3
20260502190052 69 157 0.0 3.5 0.00 0.00 0.00 46 1021.4
20260502185542 69 119 0.0 4.3 0.00 0.00 0.00 45 1021.6
20260502185042 68 203 0.0 4.3 0.00 0.00 0.00 47 1021.6
20260502184610 68 127 1.7 5.2 0.00 0.00 0.00 43 1021.7
20260502184041 68 129 1.7 5.2 0.00 0.00 0.00 45 1021.7
20260502183542 68 120 1.7 5.2 0.00 0.00 0.00 41 1021.7
20260502183101 68 266 1.7 4.3 0.00 0.00 0.00 43 1021.8
20260502182544 68 115 0.9 3.5 0.00 0.00 0.00 47 1021.7
20260502182041 68 141 0.9 4.3 0.00 0.00 0.00 47 1021.7
20260502181608 67 0 0.9 4.3 0.00 0.00 0.00 45 1021.8
20260502181041 66 127 1.7 6.1 0.00 0.00 0.00 48 1021.9
20260502180541 66 110 2.6 6.1 0.00 0.00 0.00 45 1021.9
20260502164042 62 145 0.0 4.3 0.00 0.00 0.00 54 1022.3
20260502163542 61 0 0.9 4.3 0.00 0.00 0.00 56 1022.4
20260502163055 61 98 0.9 3.5 0.00 0.00 0.00 55 1022.5
20260502162542 61 115 0.0 4.3 0.00 0.00 0.00 54 1022.4
20260502162042 60 134 1.7 4.3 0.00 0.00 0.00 56 1022.5
20260502161547 60 143 0.9 3.5 0.00 0.00 0.00 55 1022.6
20260502161047 60 297 0.9 3.5 0.00 0.00 0.00 55 1022.6
20260502160542 60 130 1.7 3.5 0.00 0.00 0.00 55 1022.7
20260502152042 56 120 0.0 1.7 0.00 0.00 0.00 62 1022.6
20260502151553 55 122 0.0 1.7 0.00 0.00 0.00 63 1022.6
20260502151042 55 0 0.9 1.7 0.00 0.00 0.00 64 1022.6
20260502150541 54 0 0.0 1.7 0.00 0.00 0.00 64 1022.6
20260502150105 53 0 0.0 1.7 0.00 0.00 0.00 73 1022.6
20260502130542 39 0 0.0 0.9 0.00 0.00 0.00 93 1022.1
20260502123541 39 0 0.0 0.9 0.00 0.00 0.00 93 1021.9
20260502123100 39 0 0.0 0.0 0.00 0.00 0.00 93 1022.1
20260502122542 39 0 0.0 0.0 0.00 0.00 0.00 92 1022.1
20260502122041 39 0 0.0 0.0 0.00 0.00 0.00 92 1021.9
20260502121555 39 0 0.0 0.0 0.00 0.00 0.00 92 1022.0
20260502121043 40 0 0.0 0.0 0.00 0.00 0.00 92 1022.0
20260502120543 40 0 0.0 0.0 0.00 0.00 0.00 92 1021.9
20260502115543 40 0 0.0 0.0 0.00 0.00 0.00 92 1021.9
20260502115043 40 0 0.0 0.0 0.00 0.00 0.00 92 1021.9
20260502114551 40 0 0.0 0.0 0.00 0.00 0.00 92 1021.9
20260502114044 40 0 0.0 0.0 0.00 0.00 0.00 92 1021.8
20260502113545 40 0 0.0 0.0 0.00 0.00 0.00 91 1021.9
20260502113051 40 0 0.0 0.0 0.00 0.00 0.00 91 1021.8
20260502112542 40 0 0.0 0.0 0.00 0.00 0.00 91 1021.9
20260502112043 40 0 0.0 0.0 0.00 0.00 0.00 91 1021.9
20260502111552 40 0 0.0 0.0 0.00 0.00 0.00 91 1021.9
20260502111042 40 0 0.0 0.0 0.00 0.00 0.00 91 1021.9
20260502110543 40 0 0.0 0.0 0.00 0.00 0.00 91 1021.9
20260502110057 40 0 0.0 0.0 0.00 0.00 0.00 91 1021.9
20260502105545 40 0 0.0 0.0 0.00 0.00 0.00 91 1021.9
20260502105044 41 0 0.0 0.0 0.00 0.00 0.00 90 1021.9
20260502104552 41 0 0.0 0.0 0.00 0.00 0.00 90 1021.9
20260502104043 41 0 0.0 0.0 0.00 0.00 0.00 90 1021.9
20260502103543 41 0 0.0 0.0 0.00 0.00 0.00 90 1022.0
20260502103055 41 0 0.0 0.0 0.00 0.00 0.00 90 1021.9
20260502102545 41 0 0.0 0.0 0.00 0.00 0.00 89 1021.9
20260502102044 41 0 0.0 0.0 0.00 0.00 0.00 89 1021.9
20260502101613 41 0 0.0 0.0 0.00 0.00 0.00 89 1021.8
20260502101042 42 0 0.0 0.0 0.00 0.00 0.00 89 1021.7
20260502100543 42 0 0.0 0.0 0.00 0.00 0.00 88 1021.7
20260502100116 42 0 0.0 0.0 0.00 0.00 0.00 88 1021.7
20260502091043 43 0 0.0 1.7 0.00 0.00 0.00 86 1021.4
20260502090543 43 43 0.0 1.7 0.00 0.00 0.00 86 1021.4